www.pogodaiklimat.ru

Погода и климат >> Архив погоды >> Беларусь >> Ганцевичи


ПОГОДА в Ганцевичах

  • Прогноз погоды в Ганцевичах
  • Монитор погоды в Ганцевичах

АРХИВ ПОГОДЫ в Ганцевичах

Время (UTC), дата Ветер
(напр.,м/с)
 
Видим.   Явления Облачность Т
(С)
Тd
(С)
f
(%)
Тe
(С)
Тes
(С)
Комфортность P
(гПа)
Po
(гПа)
Тmin
(С)
Tmax
(С)
R
(мм)
R24
(мм)
S
(см)
18 9.02 Ю 4 10 км 4/0
[Ci fib]
+0.2 -2.7 81 -5 -5 1015.0 995.3 +4.3
21 9.02 Ю 3 10 км н/о -0.8 -2.8 86 -6 -6 1015.0 995.2
00 10.02 Ю 2 10 км н/о -0.3 -2.2 87 -4 -4 1014.0 994.3
03 10.02 Ю 1 10 км н/о -0.3 -1.9 89 -2 -2 1014.0 994.3 -0.9
06 10.02 ЮЗ 2 6000 м дымка 6/3 600 м
[Sc Ac trans]
+0.6 -1.2 88 -3 -3 1013.0 993.3 -0.9
09 10.02 ЮЗ 3 15 км 1/0 2000 м
[Ac trans]
+3.9 +0.1 76 0 +3 1013.0 993.6
12 10.02 ЮЗ 3 15 км 1/0
[Ci fib]
+7.7 +0.9 62 +5 +7 1011.0 991.9
15 10.02 Ю 1 15 км 4/0
[Ci fib]
+5.5 +0.7 71 +5 +5 1011.0 991.7
18 10.02 Ю 2 10 км ясно +2.7 +0.1 83 -0 -0 1009.0 989.6 +7.9
21 10.02 Ю 2 10 км н/о +3.0 -0.5 78 0 0 1007.0 987.6
00 11.02 Ю 3 10 км н/о +3.1 -1.1 74 -1 -1 1005.0 985.7
03 11.02 Ю 3 10 км н/о +2.8 -1.2 75 -1 -1 1003.0 983.7 +1.3
06 11.02 ЮВ 2 6000 м слаб. ливневой дождь 10/10 630 м
[Cb cap]
+1.6 +0.3 91 -2 -2 1002.0 982.6 +1.3 0.4
09 11.02 Ю 3 4000 м слаб. ливневой дождь 10/10 210 м
[Cb cap]
+1.7 +1.3 97 -3 -3 1001.0 981.7
12 11.02 Ю 3 2300 м в посл. час ливневой дождь 9/9 180 м
[Sc]
+1.9 +1.6 98 -3 -3 1001.0 981.7
15 11.02 Ю 2 1700 м дымка 10/10 150 м
[St]
+2.5 +2.4 99 -1 -1 1002.0 982.7
18 11.02 Ю 2 3200 м слаб. дождь 10/10 210 м
[Frnb Ns]
+2.7 +2.6 99 -1 -1 1003.0 983.7 +2.7 4
21 11.02 ЮЗ 2
{7}
8000 м н/о +3.2 +2.8 97 1004.0 984.7
00 12.02 ЮЗ 2 10 км н/о +2.9 +1.6 91 -0 -0 1005.0 985.7
03 12.02 З 2 10 км н/о +2.3 +0.4 87 -1 -1 1006.0 986.6 +2.3
06 12.02 З 2 6000 м дымка 9/9 700 м
[Sc]
+1.5 0.0 90 -2 -2 1008.0 988.5 +1.4 0.0
09 12.02 З 5-10
{10}
10 км 8/8 840 м
[Sc]
+1.9 -1.9 76 -4 -4 1010.0 990.5
12 12.02 СЗ 4
{10}
15 км 9/9 750 м
[Sc]
+1.7 -2.6 73 -3 -3 1011.0 991.5
15 12.02 СЗ 3 15 км 9/9 930 м
[Sc]
+1.7 -2.8 72 -2 -2 1013.0 993.4
18 12.02 СЗ 4 10 км 9/9 660 м
[Sc]
+0.8 -1.8 83 -4 -4 1016.0 996.3 +2.4
21 12.02 СЗ 3
{11}
10 км н/о -0.3 -5.1 70 -5 -5 1019.0 999.1
00 13.02 СЗ 3
{12}
10 км н/о -0.3 -6.1 65 -5 -5 1020.0 1000.1
03 13.02 СЗ 5
{11}
10 км н/о -0.1 -6.3 63 -6 -6 1022.0 1002.1 -0.3
06 13.02 З 2 15 км 9/9 1000 м
[Sc]
-0.7 -5.9 68 -4 -4 1022.0 1002.1 -0.7
09 13.02 З 4 10 км 9/9 750 м
[Sc]
0.0 -3.5 77 -5 -5 1022.0 1002.1
12 13.02 ЮЗ 3 10 км слаб. ливневой снег 9/9 700 м
[Cb calv]
+0.2 -2.7 81 -4 -4 1020.0 1000.2
15 13.02 ЮЗ 3 4000 м слаб. ливневой снег 10/10 270 м
[Cb calv]
-0.6 -1.2 96 -6 -6 1017.0 997.2
18 13.02 З 3 3200 м слаб. снег 10/10 210 м
[Frnb Ns]
+0.4 +0.3 99 -4 -4 1017.0 997.3 +0.6 3 2
21 13.02 СЗ 3 7000 м н/о +1.8 +1.5 98 -3 -3 1018.0 998.3
00 14.02 СЗ 3 10 км н/о +1.8 +1.4 97 -3 -3 1021.0 1001.3
03 14.02 СЗ 2 10 км н/о +1.9 +1.0 94 -2 -2 1023.0 1003.2 +0.4
06 14.02 СЗ 3 4500 м дымка 9/9 500 м
[Sc]
+1.6 +0.7 94 -3 -3 1026.0 1006.2 +0.4 3 0.10
09 14.02 СЗ 3 4500 м дымка 9/9 210 м
[Sc]
+1.5 +0.9 96 -3 -3 1027.0 1007.1
12 14.02 СЗ 3 6000 м дымка 9/9 540 м
[Sc]
+3.1 +1.5 89 -1 -1 1028.0 1008.2
15 14.02 СЗ 1 10 км 4/3 600 м
[Sc Ci fib]
+3.1 +0.7 84 +2 +2 1029.0 1009.2
18 14.02 штиль 0 2800 м дымка 4/0
[Ci fib]
-1.7 -1.8 99 -3 -3 1030.0 1009.8 +3.7
21 14.02 штиль 0 6000 м н/о -2.8 -2.8 100 -4 -4 1031.0 1010.7
00 15.02 З 1 600 м н/о -0.9 -0.9 100 -3 -3 1031.0 1010.9
03 15.02 З 2 2200 м н/о -0.2 -0.2 100 -4 -4 1031.0 1010.9 -2.9
06 15.02 ЮЗ 2 900 м туман ?/? +0.1 +0.1 100 -4 -4 1031.0 1011.0 -2.9
09 15.02 З 2 2900 м дымка {туман} 10/10 180 м
[St]
+1.9 +1.9 100 -2 -2 1030.0 1010.1
12 15.02 З 3 3500 м дымка {туман} 9/9 210 м
[Sc]
+3.8 +3.7 99 -0 -0 1029.0 1009.3
15 15.02 З 3 4500 м дымка 9/9 300 м
[Sc]
+4.2 +3.0 92 0 0 1028.0 1008.3
18 15.02 СЗ 3 4500 м дымка 10 баллов +3.2 +2.0 92 -1 -1 1029.0 1009.2 +4.3
21 15.02 СЗ 3 8000 м н/о +2.4 +1.5 94 -2 -2 1029.0 1009.2
00 16.02 СЗ 2 7000 м н/о +2.1 +2.0 99 -1 -1 1028.0 1008.2
03 16.02 З 2 2000 м н/о +2.0 +2.0 100 -2 -2 1027.0 1007.2 +2.0
06 16.02 З 2 800 м туман н/о +1.6 +1.6 100 -2 -2 1027.0 1007.1 +1.6
09 16.02 З 3 2000 м дымка 10 баллов +2.0 +2.0 100 -3 -3 1027.0 1007.2
12 16.02 З 3 4500 м дымка 10 баллов +3.3 +2.6 95 -1 -1 1026.0 1006.3

 

Местоположение метеостанции Ганцевичи (Брестская область, Беларусь): широта 52.75 долгота 26.44 высота над уровнем моря 157 м.

В архиве по умолчанию представлена погода в Ганцевичах за последнюю неделю. Архивные данные за месяц целиком и за предыдущие месяцы, начиная с января 2011 года, Вы можете получить, выбрав интересующий диапазон дат из раскрывающегося списка и нажав кнопку "Ввод!".


*Определитесь, кто Вы:
робот инопланетянин человек

Внимание! Время в таблицах - всемирное. Для получения местного времени необходимо прибавить поправку, которая равна 3 ч.

Смотрите также архив погоды в соседних городах и на ближайших метеорологических станциях:

Погода в Барановичах (Брестская область, Беларусь) (53 км)
Погода в Полесской (Брестская область, Беларусь) (53 км)
Погода в Ивацевичах (Брестская область, Беларусь) (73 км)
Погода в Пинске (Брестская область, Беларусь) (75 км)
Погода в Слуцке (Минская область, Беларусь) (81 км)
Погода в Столбцах (Минская область, Беларусь) (83 км)
Погода в Новогрудке (Гродненская область, Беларусь) (102 км)
Погода в Дрогичине (Брестская область, Беларусь) (109 км)
Погода в Житковичах (Гомельская область, Беларусь) (113 км)
Погода в Пружанах (Брестская область, Беларусь) (133 км)

Пояснения к столбцам:

Ветер - указаны скорость ветра в м/с - средняя за 10 мин, порывы в срок и между сроками (в фигурных скобках) и направление, откуда дует ветер: С - северный, СВ - северо-восточный, В - восточный, ЮВ - юго-восточный, Ю - южный, ЮЗ - юго-западный, З - западный, СЗ - северо-западный.
Видимость - горизонтальная дальность видимости в метрах или километрах. При видимости от 1 до 10 км при отсутствии осадков обычно наблюдается дымка, при ухудшении видимости до 1 км и менее - туман. В сухую погоду видимость может ухудшаться дымом, пылью или мглою.
Явления - указаны атмосферные явления, наблюдавшиеся в срок или в последний час перед сроком; фигурными скобками обозначены явления, наблюдавшиеся между сроками (за 1-3 часа до срока); квадратными скобками обозначены град или гололедные отложения с указанием их диаметра в мм.
Облачность - указаны через наклонную черту общая и нижняя облачность в баллах и высота нижней границы облаков в метрах; квадратными скобками обозначены формы облаков: Ci - перистые, Cs - перисто-слоистые, Cc - перисто-кучевые, Ac - высококучевые, As - высокослоистые, Sc - слоисто-кучевые, Ns - слоисто-дождевые, Cu - кучевые, Cb - кучево-дождевые. Подробнее классификацию облаков см. в Атласе облаков (PDF).
T - Температура воздуха - температура, измеренная на высоте 2 м над землей.
Td - Температура точки росы - температура, при понижении до которой содержащийся в воздухе водяной пар достигнет насыщения.
f - Относительная влажность воздуха - влажноcть воздуха, измеренная на высоте 2 м над землей.
Te - Эффективная температура - температура, которую ощущает одетый по сезону человек в тени. Характеристика душности погоды. При расчете учитывается влияние влажности воздуха и скорости ветра на теплоощущения человека.
Tes - Эффективная температура на солнце - температура, которую ощущает человек, с поправкой на солнечный нагрев. Характеристика знойности погоды. Зависит от высоты солнца над горизонтом, облачности и скорости ветра. Ночью, в пасмурную погоду, а также при ветре 12 м/с и более поправка равна нулю.
P - Атмосферное давление - приведенное к уровню моря атмосферное давление.
Po - Атмосферное давление - измеренное на уровне метеостанции атмосферное давление.
Tmin - Минимальная температура - минимум температуры воздуха на высоте 2 м над землей.
Tmax - Максимальная температура - максимум температуры воздуха на высоте 2 м над землей.
R - Количество осадков - Количество выпавших осадков за период времени, мм. При наведении курсора мыши на число - период времени, за который выпало указанное количество осадков.
R24 - Количество осадков - Количество выпавших осадков за 24 часа, мм.
S - Снежный покров - Высота снежного покрова, см. При наведении курсора мыши на число - состояние снежного покрова и степень покрытия местности в баллах.